Voltar ao catálogo

STARLINK-30816

AtivoComunicaçõesVLEO
NORAD 58162·PAYLOAD·🇺🇸 United States

Lançado Oct 29, 2023 de Vandenberg Space Force Base

Loading…

Próximas Passagens (próximas 24 horas)

TLE

AtualizadoSource: CelesTrak SupGP

Época: Sep 14, 2026, 22:04 UTC

1 58162C 23166N   26257.91993056  .00051360  00000+0  15179-2 0  2570
2 58162  53.1602  59.8264 0001371  79.9621 259.9037 15.34356527    18

Acompanhe STARLINK-30816 em tempo real com AllMySat

Download on the App Store